Indianapolis, IN

1:19 AM EDT on August 24, 2017 (GMT -0400)
Indianapolis Terry

Weather History for KTYQ - November, 2013

Change the Weather History Date:

Thursday, November 28, 2013

  Actual Average (KEYE) Record (KEYE)
Temperature  
Mean Temperature 26 °F -  
Max Temperature 35 °F 45 °F 66 °F (1998)
Min Temperature 17 °F 31 °F 18 °F (2013)
Degree Days  
Heating Degree Days 39    
Moisture  
Dew Point 13 °F    
Average Humidity 61    
Maximum Humidity 79    
Minimum Humidity 37    
Precipitation  
Precipitation 0.00 in - - ()
Sea Level Pressure  
Sea Level Pressure 30.30 in    
Wind  
Wind Speed 7 mph (SW)    
Max Wind Speed 16 mph    
Max Gust Speed 23 mph    
Visibility 10 miles    
Events      
Averages and records for this station are not official NWS values.
T = Trace of Precipitation, MM = Missing Value Source: NWS Daily Summary

Daily Weather History Graph

Daily Weather History Graph

Search for Another Location

Airport or City:

Trip Planner

Search our weather history database for the weather conditions in past years. The results will help you decide how hot, cold, wet, or windy it might be!

Date:

Astronomy

Nov. 28, 2013 Rise Set
Actual Time 7:44 AM EST 5:21 PM EST
Civil Twilight 7:15 AM EST 5:50 PM EST
Nautical Twilight 6:41 AM EST 6:24 PM EST
Astronomical Twilight 6:08 AM EST 6:56 PM EST
Moon 2:46 AM EST (11/28) 2:30 PM EST (11/28)
Length of Visible Light 10h 35m
Length of Day
9h 36m
Waning Crescent, 22% of the Moon is Illuminated
Nov 28
Waning Crescent
Dec 2
New
Dec 9
First Quarter
Dec 17
Full
Dec 25
Last Quarter

Hourly Weather History & Observations

Time (EST) Temp. Windchill Dew Point Humidity Pressure Visibility Wind Dir Wind Speed Gust Speed Precip Events Conditions
12:15 AM 19.2 °F 11.3 °F 11.7 °F 72% 30.28 in 10.0 mi West 5.8 mph - N/A   Clear
12:35 AM 19.9 °F 12.1 °F 11.8 °F 71% 30.27 in 10.0 mi West 5.8 mph - N/A   Clear
12:55 AM 20.3 °F 12.5 °F 12.2 °F 71% 30.28 in 10.0 mi West 5.8 mph - N/A   Clear
1:15 AM 21.2 °F 13.6 °F 12.6 °F 69% 30.28 in 10.0 mi West 5.8 mph - N/A   Clear
1:35 AM 21.2 °F 14.9 °F 12.9 °F 70% 30.28 in 10.0 mi West 4.6 mph - N/A   Clear
1:55 AM 20.7 °F 11.9 °F 12.7 °F 71% 30.26 in 10.0 mi SW 6.9 mph - N/A   Scattered Clouds
2:15 AM 20.5 °F 14.0 °F 12.7 °F 72% 30.27 in 10.0 mi WSW 4.6 mph - N/A   Scattered Clouds
2:35 AM 19.2 °F 14.1 °F 11.7 °F 72% 30.27 in 10.0 mi WSW 3.5 mph - N/A   Scattered Clouds
2:55 AM 19.4 °F 14.3 °F 12.4 °F 74% 30.29 in 10.0 mi WSW 3.5 mph - N/A   Mostly Cloudy
3:15 AM 18.5 °F 13.3 °F 12.2 °F 76% 30.29 in 10.0 mi WSW 3.5 mph - N/A   Scattered Clouds
3:35 AM 17.4 °F 12.1 °F 11.8 °F 79% 30.30 in 10.0 mi WSW 3.5 mph - N/A   Scattered Clouds
3:55 AM 17.6 °F 10.7 °F 12.2 °F 79% 30.29 in 10.0 mi SSW 4.6 mph - N/A   Mostly Cloudy
4:15 AM 19.9 °F 12.1 °F 14.0 °F 78% 30.29 in 10.0 mi SW 5.8 mph - N/A   Overcast
4:35 AM 21.0 °F 14.6 °F 14.0 °F 74% 30.30 in 10.0 mi SW 4.6 mph - N/A   Overcast
4:55 AM 21.2 °F 14.9 °F 13.6 °F 73% 30.30 in 10.0 mi WSW 4.6 mph - N/A   Overcast
5:15 AM 21.7 °F 15.5 °F 13.3 °F 70% 30.30 in 10.0 mi SW 4.6 mph - N/A   Overcast
5:35 AM 22.1 °F 14.7 °F 13.6 °F 70% 30.31 in 10.0 mi SW 5.8 mph - N/A   Overcast
5:55 AM 22.1 °F 14.7 °F 13.5 °F 69% 30.31 in 10.0 mi WSW 5.8 mph - N/A   Overcast
6:15 AM 22.5 °F 16.3 °F 13.1 °F 67% 30.30 in 10.0 mi SSW 4.6 mph - N/A   Overcast
6:35 AM 22.1 °F 14.7 °F 12.7 °F 67% 30.31 in 10.0 mi SSW 5.8 mph - N/A   Overcast
6:55 AM 22.1 °F 14.7 °F 11.8 °F 65% 30.31 in 10.0 mi SSW 5.8 mph - N/A   Overcast
7:15 AM 21.2 °F 14.9 °F 10.9 °F 65% 30.31 in 10.0 mi SSW 4.6 mph - N/A   Mostly Cloudy
7:35 AM 21.7 °F 14.3 °F 11.3 °F 64% 30.31 in 10.0 mi South 5.8 mph - N/A   Overcast
7:55 AM 20.8 °F 13.2 °F 10.4 °F 64% 30.31 in 10.0 mi South 5.8 mph - N/A   Scattered Clouds
8:15 AM 20.8 °F 11.2 °F 10.4 °F 64% 30.31 in 10.0 mi South 8.1 mph - N/A   Scattered Clouds
8:35 AM 21.7 °F 14.3 °F 11.3 °F 64% 30.32 in 10.0 mi South 5.8 mph - N/A   Clear
8:55 AM 22.8 °F 12.9 °F 11.5 °F 62% 30.32 in 10.0 mi South 9.2 mph - N/A   Mostly Cloudy
9:15 AM 23.9 °F 14.2 °F 11.3 °F 59% 30.31 in 10.0 mi South 9.2 mph 16.1 mph N/A   Overcast
9:35 AM 24.6 °F 15.1 °F 11.1 °F 57% 30.31 in 10.0 mi South 9.2 mph - N/A   Overcast
9:55 AM 24.8 °F 13.4 °F 9.9 °F 53% 30.31 in 10.0 mi South 12.7 mph 19.6 mph N/A   Overcast
10:15 AM 25.5 °F 12.9 °F 9.3 °F 50% 30.31 in 10.0 mi South 16.1 mph 20.7 mph N/A   Overcast
10:35 AM 26.6 °F 14.3 °F 9.9 °F 49% 30.31 in 10.0 mi SSW 16.1 mph 21.9 mph N/A   Mostly Cloudy
11:55 AM 31.1 °F 20.5 °F 9.9 °F 41% 30.27 in 10.0 mi SSW 15.0 mph 19.6 mph N/A   Clear
12:15 PM 32.0 °F 22.1 °F 9.7 °F 39% 30.26 in 10.0 mi SSW 13.8 mph 23.0 mph N/A   Clear
12:55 PM 32.4 °F 22.5 °F 9.9 °F 39% 30.25 in 10.0 mi SSW 13.8 mph 19.6 mph N/A   Scattered Clouds
1:15 PM 33.1 °F 23.9 °F 10.0 °F 38% 30.24 in 10.0 mi SSW 12.7 mph 18.4 mph N/A   Clear
1:35 PM 34.5 °F 26.2 °F 10.2 °F 37% 30.23 in 10.0 mi SW 11.5 mph - N/A   Clear
1:55 PM 34.7 °F 25.5 °F 10.6 °F 37% 30.23 in 10.0 mi SSW 13.8 mph - N/A   Clear
2:15 PM 34.9 °F 25.7 °F 10.6 °F 37% 30.22 in 10.0 mi SW 13.8 mph 20.7 mph N/A   Clear
2:35 PM 35.1 °F 25.2 °F 11.1 °F 37% 30.22 in 10.0 mi SW 16.1 mph 21.9 mph N/A   Clear
3:15 PM 35.6 °F 26.2 °F 11.5 °F 37% 30.23 in 10.0 mi WSW 15.0 mph 19.6 mph N/A   Clear
3:35 PM 35.1 °F 25.5 °F 12.6 °F 40% 30.25 in 10.0 mi SW 15.0 mph 20.7 mph N/A   Clear
4:35 PM 34.7 °F 25.9 °F 14.0 °F 43% 30.27 in 10.0 mi WSW 12.7 mph 19.6 mph N/A   Clear
4:55 PM 33.8 °F 25.8 °F 14.5 °F 45% 30.28 in 10.0 mi WSW 10.4 mph - N/A   Clear
5:15 PM 32.9 °F 26.7 °F 14.9 °F 48% 30.29 in 10.0 mi WSW 6.9 mph - N/A   Clear
5:35 PM 31.5 °F 24.9 °F 15.3 °F 51% 30.30 in 10.0 mi SW 6.9 mph - N/A   Clear
5:55 PM 29.3 °F 24.3 °F 15.6 °F 57% 30.31 in 10.0 mi SW 4.6 mph - N/A   Clear
6:15 PM 28.2 °F 23.1 °F 15.8 °F 60% 30.32 in 10.0 mi SW 4.6 mph - N/A   Clear
6:35 PM 27.7 °F 22.4 °F 15.8 °F 61% 30.33 in 10.0 mi SW 4.6 mph - N/A   Clear
6:55 PM 27.7 °F 23.8 °F 16.2 °F 62% 30.34 in 10.0 mi SW 3.5 mph - N/A   Clear
7:15 PM 26.6 °F 21.2 °F 15.8 °F 64% 30.34 in 10.0 mi SW 4.6 mph - N/A   Clear
7:35 PM 26.8 °F 22.8 °F 15.8 °F 63% 30.35 in 10.0 mi SW 3.5 mph - N/A   Clear
7:55 PM 27.0 °F 21.6 °F 15.8 °F 63% 30.36 in 10.0 mi SW 4.6 mph - N/A   Clear
8:15 PM 25.7 °F 20.1 °F 15.6 °F 66% 30.37 in 10.0 mi SW 4.6 mph - N/A   Clear
8:35 PM 25.7 °F 21.5 °F 15.6 °F 66% 30.37 in 10.0 mi WSW 3.5 mph - N/A   Clear
9:35 PM 25.7 °F 21.5 °F 16.2 °F 67% 30.39 in 10.0 mi WNW 3.5 mph - N/A   Clear
9:55 PM 26.2 °F 20.7 °F 16.7 °F 67% 30.40 in 10.0 mi West 4.6 mph - N/A   Clear
10:15 PM 26.4 °F - 16.7 °F 67% 30.40 in 10.0 mi Calm Calm - N/A   Clear
10:35 PM 23.2 °F 18.7 °F 16.0 °F 74% 30.40 in 10.0 mi West 3.5 mph - N/A   Clear
11:15 PM 21.2 °F 16.4 °F 15.3 °F 78% 30.42 in 10.0 mi West 3.5 mph - N/A   Clear